{"data":{"norad_id":68071,"epoch":"2026-05-25T02:53:16.155168Z","epoch_age_seconds":67758,"freshness":"FRESH","line1":"1 68071U 26042C   26145.12032587  .00016948  00000+0  51139-3 0  9991","line2":"2 68071  53.1593 183.2481 0001312  85.1365 274.9788 15.34411980 14019","mean_motion":15.3441198,"eccentricity":0.0001312,"inclination_deg":53.1593,"raan_deg":183.2481,"arg_perigee_deg":85.1365,"mean_anomaly_deg":274.9788,"bstar":0.00051139,"rev_number":1401,"period_min":93.847025360164,"perigee_km":461.77011978621,"apogee_km":463.565146922,"semimajor_km":6840.8046333541,"source":"CELESTRAK","updated_at":"2026-05-25T13:38:21.817484Z"}}